sat.trackr.live / text

‹ back to catalog

STARLINK-3270

NORAD 50199 · 2021-125AV

PAYLOAD ACTIVE UNKNOWN

§ Identity

Operator
Country
US
Launch date
2021-12-18
Launch site
AFWTR
Launch vehicle
Mass (kg)
RCS (m²)

Purposes: comms

External: N2YO · Heavens-Above · Gunter

§ Orbital elements

Epoch: 2026-05-25T00:49:23.692800Z

Period
95.44 min
Inclination
53.2146°
Eccentricity
0.0001050
Mean motion
15.08847620 rev/d
Perigee alt
539.0 km
Apogee alt
540.4 km
Semi-major
6,917.9 km
B*
2.9841e-4
RAAN
256.3943°
Arg perigee
73.3335°
Mean anomaly
286.7772°
Rev number
24,825

§ Raw data

STARLINK-32701 50199U 21125AV  26145.03430200  .00004466  00000+0  29841-3 0  99912 50199  53.2146 256.3943 0001050  73.3335 286.7772 15.08847620248250

JSON: /api/v1/satellites/50199 · /tle

For live sub-satellite position, see the globe view (requires WebGL).

§ Visibility from observer

Set your observer location to see the next 7 days of passes ≥ 10°. The values pass through the URL so the page stays shareable.

No JS? Fill the form by hand. The geolocation button needs JavaScript.